[[{"header":{"parameterUnit":"m.s-1","parameterCategory":1,"la1":30.2991,"la2":30.254,"lo1":-89.0895,"lo2":-89.0444,"dy":0.0017,"dx":0.0017,"nx":28,"ny":28,"refTime":"2025-07-03T03:00:00:Z","depth":0,"parameterNumber":2,"parameterNumberName":"U-component_of_WINDS"},"data":[0,0,0,0,0,0,0,0,0,0,0,0,0,0,0,0,0,0,0,0,0,0,0,0,0,0,0,0,0,0,0,0,0,0,0,0,0,0,0,0,0,0,0,0,0,0,0,0,0,0,0,0,0,0,0,0,0,0,2.4198,2.4198,0,2.4281,2.4282,2.4283,2.4236,2.4233,2.4231,2.4229,2.4317,2.4322,2.4326,0,0,0,0,0,0,0,0,0,0,0,0,0,2.4001,2.4005,2.4197,2.4198,2.42,2.4281,2.4282,2.4283,2.4236,2.4233,2.423,2.4228,2.4316,2.4321,2.4327,0,0,0,0,0,0,0,0,0,0,0,0,0,2.4086,2.4006,2.4197,2.4186,2.4185,2.4281,2.4282,2.4284,2.4237,2.4233,2.423,2.4226,2.4314,2.4321,2.4328,2.444,0,0,2.4348,2.4351,0,0,0,0,0,0,0,0,2.4081,2.4093,2.4186,2.4187,2.4187,2.4244,2.4245,2.4336,2.4238,2.4217,2.4229,2.4225,2.4296,2.4304,2.4328,2.4444,2.4448,2.4349,2.4353,2.4356,2.4358,0,0,0,0,0,0,0,2.4075,2.4089,2.4231,2.4188,2.4188,2.4178,2.4186,2.4262,2.4276,2.4219,2.4216,2.4226,2.4296,2.4321,2.433,2.4449,2.4349,2.4355,2.4359,2.4362,2.4666,2.467,0,0,0,0,0,0,2.4069,2.4084,2.4228,2.4233,2.4124,2.4184,2.4193,2.4229,2.4275,2.4278,2.4229,2.4223,2.4311,2.4322,2.4332,2.447,2.4356,2.4362,2.4366,2.4662,2.4667,2.4671,0,0,0,0,0,0,2.4065,2.4083,2.4225,2.4158,2.4175,2.4191,2.4232,2.4233,2.4259,2.4282,2.4285,2.4253,2.4309,2.4323,2.4414,2.4472,2.4365,2.4372,2.4658,2.4664,2.4669,2.4744,0,0,0,0,0,0,2.406,2.4081,2.4123,2.4159,2.4179,2.4304,2.4236,2.4237,2.427,2.4264,2.4305,2.4308,2.4307,2.4404,2.4421,2.448,2.4377,2.4653,2.466,2.4667,2.4736,2.4751,2.4765,0,0,0,0,0,2.4053,2.4141,2.4126,2.4143,2.4231,2.4307,2.4319,2.4315,2.4275,2.4318,2.4334,2.4307,2.4463,2.4414,2.4433,2.4494,2.4649,2.4658,2.4667,2.473,2.4748,2.4764,0,0,0,0,0,0,2.4111,2.4145,2.4129,2.423,2.4266,2.4299,2.4353,2.4334,2.4383,2.4375,2.4369,2.4379,2.4475,2.4493,2.4438,2.4607,2.455,2.4563,2.4591,2.4609,2.4623,2.4618,2.4383,0,0,0,0,0,2.4136,2.4193,2.422,2.4307,2.4326,2.4337,2.437,2.4364,2.4401,2.4416,2.4438,2.4477,2.4535,2.4573,2.4627,2.4738,2.4748,2.479,2.4804,2.4816,2.4828,2.4891,2.4911,2.4701,2.4701,2.4701,0,0,2.4187,2.4213,2.425,2.432,2.4347,2.4409,2.435,2.4417,2.4463,2.4427,2.4515,2.4533,2.4575,2.4678,2.4725,2.4697,2.4888,2.4827,2.4836,2.4842,2.4903,2.4922,2.494,2.4707,2.4706,2.4705,0,0,2.4313,2.4337,2.4413,2.4442,2.4484,2.4491,2.451,2.4546,2.4557,2.4645,2.462,2.4675,2.4774,2.4807,2.4836,2.4977,2.4956,2.4995,2.507,2.5132,2.5148,2.5163,2.5216,2.5235,2.5006,2.5007,2.5007,0,2.4372,2.4462,2.4455,2.4525,2.4558,2.4528,2.4607,2.4635,2.4694,2.4718,2.4685,2.4811,2.4837,2.4949,2.4984,2.5007,2.5031,2.4991,2.5146,2.5161,2.5175,2.5225,2.5245,2.5011,2.5011,2.501,2.501,0,2.4534,2.4598,2.4655,2.4712,2.4751,2.4825,2.4831,2.4872,2.4864,2.4875,2.4967,2.4997,2.5059,2.5085,2.5076,2.5196,2.5178,2.5146,2.5089,2.5199,2.5247,2.5266,2.5018,2.5016,2.5015,2.5014,0,0,2.4698,2.4751,2.4773,2.48,2.4845,2.4895,2.4969,2.5028,2.5065,2.5106,2.517,2.5256,2.5228,2.5261,2.5257,2.5311,2.5425,2.5273,2.5274,2.5302,2.5562,2.5587,2.5609,2.541,2.5414,2.5417,2.5559,0,2.4828,2.4956,2.4954,2.5074,2.5134,2.5107,2.5172,2.5208,2.5221,2.5276,2.529,2.5352,2.5308,2.5329,2.5381,2.54,2.5477,2.5389,2.5472,2.5475,2.5464,2.5634,2.566,2.5792,2.5577,2.558,2.5583,0,2.4997,2.5045,2.5171,2.521,2.5235,2.5293,2.5349,2.5401,2.5442,2.5448,2.5487,2.5475,2.5553,2.5493,2.5601,2.5542,2.5576,2.559,2.5595,2.5604,2.5537,2.5649,2.5834,2.5855,2.5611,2.5609,2.5607,0,2.5107,2.5203,2.5291,2.5314,2.5361,2.5404,2.5425,2.5463,2.55,2.555,2.5575,2.5633,2.5665,2.5711,2.5717,2.5672,2.5827,2.5767,2.5836,2.5837,2.5871,2.5869,2.6067,2.589,2.589,2.5889,2.5889,0,2.5254,2.5332,2.5341,2.5396,2.5485,2.5482,2.557,2.5588,2.5623,2.5682,2.5662,2.5719,2.5721,2.578,2.5784,2.5876,2.589,2.5899,2.5899,2.5901,2.5901,2.5925,2.5916,2.5895,2.5893,2.5892,2.5892,0,2.5392,2.54,2.5496,2.5533,2.5544,2.5608,2.5641,2.5694,2.5706,2.5782,2.5799,2.5818,2.5887,2.5896,2.5976,2.5979,2.6089,2.6079,2.6075,2.6075,2.6145,2.6139,2.6366,2.6397,2.6198,2.62,2.6202,0,2.5485,2.5546,2.559,2.5628,2.5652,2.5713,2.5752,2.5752,2.5793,2.5846,2.5894,2.596,2.6013,2.6124,2.6146,2.6208,2.6201,2.6276,2.621,2.6212,2.6205,2.6202,2.621,2.6289,2.6292,2.6293,2.6295,0,2.5652,2.5654,2.5709,2.5767,2.5813,2.5858,2.5901,2.5934,2.594,2.5987,2.6057,2.6098,2.6181,2.6248,2.631,2.6334,2.6317,2.6315,2.6335,2.6339,2.6335,2.6341,2.6112,2.631,2.6309,2.6308,2.6307,2.6306,2.5773,2.5826,2.5866,2.5929,2.5961,2.6002,2.6055,2.6074,2.6131,2.6198,2.6195,2.6273,2.6316,2.6397,2.6426,2.6488,2.6464,2.6492,2.6499,2.6507,2.6515,2.6324,2.6499,2.6499,2.6498,2.6498,2.6497,0,2.594,2.5965,2.6023,2.6084,2.6134,2.6112,2.616,2.6204,2.6272,2.6313,2.6366,2.6448,2.6513,2.6541,2.6607,2.6651,2.6645,2.6669,2.6666,2.6673,2.6532,2.6509,2.6673,2.6673,2.6673,2.6672,2.6672,2.6672,2.6033,2.6123,2.6131,2.6238,2.6262,2.6338,2.6367,2.6406,2.6439,2.6531,2.6585,2.6603,2.664,2.6708,2.6768,2.6775,2.6801,2.6829,2.6832,2.67,2.6682,2.6666,2.6644,2.6834,2.6834,2.6969,2.697,2.6971]},{"header":{"parameterUnit":"m.s-1","parameterCategory":1,"la1":30.2991,"la2":30.254,"lo1":-89.0895,"lo2":-89.0444,"dy":0.0017,"dx":0.0017,"nx":28,"ny":28,"refTime":"2025-07-03T03:00:00:Z","depth":0,"parameterNumber":3,"parameterNumberName":"V-component_of_WINDS"},"data":[0,0,0,0,0,0,0,0,0,0,0,0,0,0,0,0,0,0,0,0,0,0,0,0,0,0,0,0,0,0,0,0,0,0,0,0,0,0,0,0,0,0,0,0,0,0,0,0,0,0,0,0,0,0,0,0,0,0,-1.5845,-1.5845,0,-1.5882,-1.5883,-1.5883,-1.5878,-1.5877,-1.5877,-1.5876,-1.5912,-1.5913,-1.5915,0,0,0,0,0,0,0,0,0,0,0,0,0,-1.5768,-1.5769,-1.5845,-1.5846,-1.5846,-1.5882,-1.5883,-1.5883,-1.5878,-1.5877,-1.5877,-1.5876,-1.5911,-1.5913,-1.5915,0,0,0,0,0,0,0,0,0,0,0,0,0,-1.5803,-1.577,-1.5845,-1.5848,-1.5848,-1.5882,-1.5883,-1.5883,-1.5878,-1.5877,-1.5876,-1.5875,-1.5911,-1.5913,-1.5915,-1.5948,0,0,-1.5922,-1.5923,0,0,0,0,0,0,0,0,-1.5801,-1.5806,-1.5847,-1.5848,-1.5848,-1.5875,-1.5869,-1.5905,-1.5878,-1.5867,-1.5876,-1.5875,-1.59,-1.5903,-1.5912,-1.5949,-1.5951,-1.5923,-1.5924,-1.5925,-1.5926,0,0,0,0,0,0,0,-1.5798,-1.5804,-1.586,-1.5848,-1.5848,-1.5847,-1.5851,-1.5875,-1.5888,-1.5868,-1.5868,-1.5872,-1.59,-1.591,-1.5913,-1.5952,-1.5922,-1.5924,-1.5926,-1.5927,-1.6017,-1.6018,0,0,0,0,0,0,-1.5795,-1.5802,-1.5858,-1.5861,-1.5822,-1.5849,-1.5853,-1.5867,-1.5888,-1.589,-1.5873,-1.5872,-1.5906,-1.591,-1.5914,-1.5953,-1.5925,-1.5927,-1.5928,-1.6016,-1.6017,-1.6018,0,0,0,0,0,0,-1.5794,-1.5801,-1.5857,-1.5831,-1.5838,-1.5851,-1.5867,-1.5868,-1.5878,-1.5892,-1.5894,-1.588,-1.5906,-1.5911,-1.5939,-1.5954,-1.5928,-1.593,-1.6015,-1.6016,-1.6018,-1.6031,0,0,0,0,0,0,-1.5792,-1.58,-1.5813,-1.5832,-1.584,-1.5882,-1.5868,-1.587,-1.5882,-1.5881,-1.5899,-1.5901,-1.5906,-1.5936,-1.5942,-1.5957,-1.5932,-1.6013,-1.6015,-1.6017,-1.6029,-1.6033,-1.6036,0,0,0,0,0,-1.5789,-1.5815,-1.5814,-1.582,-1.5856,-1.5883,-1.5888,-1.5893,-1.5883,-1.5896,-1.5905,-1.5901,-1.5952,-1.5939,-1.5945,-1.5961,-1.6012,-1.6015,-1.6017,-1.6028,-1.6032,-1.6036,0,0,0,0,0,0,-1.5796,-1.5817,-1.5816,-1.5849,-1.5865,-1.5882,-1.5898,-1.5897,-1.5915,-1.5913,-1.5918,-1.5922,-1.595,-1.5959,-1.5944,-1.5994,-1.5981,-1.5984,-1.5987,-1.5991,-1.5994,-1.5991,-1.5934,0,0,0,0,0,-1.5802,-1.5823,-1.584,-1.5867,-1.5875,-1.5886,-1.5897,-1.59,-1.5916,-1.5922,-1.5933,-1.5948,-1.5967,-1.598,-1.5998,-1.6031,-1.6034,-1.6045,-1.6048,-1.6051,-1.6054,-1.6071,-1.6075,-1.6026,-1.6026,-1.6026,0,0,-1.5814,-1.5828,-1.584,-1.5869,-1.5881,-1.5902,-1.5891,-1.5913,-1.5928,-1.5925,-1.5953,-1.5961,-1.5978,-1.6009,-1.6023,-1.6017,-1.6068,-1.6054,-1.6056,-1.6057,-1.6074,-1.6078,-1.6082,-1.6027,-1.6027,-1.6027,0,0,-1.5845,-1.5858,-1.5882,-1.5895,-1.5914,-1.5921,-1.5927,-1.5945,-1.5951,-1.5979,-1.5977,-1.5994,-1.6028,-1.604,-1.605,-1.6087,-1.6084,-1.6093,-1.6109,-1.6126,-1.613,-1.6134,-1.6146,-1.615,-1.6096,-1.6096,-1.6096,0,-1.5857,-1.5888,-1.5894,-1.5917,-1.593,-1.5929,-1.5953,-1.5964,-1.5988,-1.5996,-1.599,-1.6032,-1.6043,-1.6076,-1.6085,-1.6094,-1.61,-1.609,-1.6129,-1.6133,-1.6136,-1.6148,-1.6152,-1.6097,-1.6097,-1.6097,-1.6097,0,-1.5901,-1.5923,-1.5941,-1.5964,-1.5979,-1.6002,-1.6011,-1.6025,-1.6026,-1.6034,-1.6062,-1.6076,-1.6097,-1.6105,-1.6107,-1.6138,-1.6134,-1.6128,-1.6115,-1.6142,-1.6153,-1.6157,-1.6098,-1.6098,-1.6098,-1.6097,0,0,-1.5937,-1.5965,-1.5971,-1.5982,-1.6003,-1.602,-1.6043,-1.6064,-1.6076,-1.6092,-1.6111,-1.614,-1.6135,-1.6147,-1.6149,-1.6164,-1.6191,-1.6157,-1.6157,-1.6162,-1.6226,-1.623,-1.6235,-1.619,-1.6191,-1.6191,-1.6224,0,-1.597,-1.6011,-1.6018,-1.6054,-1.6074,-1.6074,-1.6094,-1.6108,-1.6116,-1.6134,-1.6142,-1.6162,-1.6154,-1.6161,-1.6176,-1.6185,-1.6204,-1.6183,-1.6206,-1.6207,-1.6201,-1.6241,-1.6244,-1.6275,-1.6229,-1.623,-1.623,0,-1.6013,-1.6032,-1.607,-1.6089,-1.6097,-1.6115,-1.6135,-1.6153,-1.6169,-1.6174,-1.6188,-1.6189,-1.6212,-1.6199,-1.623,-1.6216,-1.6226,-1.6232,-1.6233,-1.6234,-1.6219,-1.6242,-1.6285,-1.6289,-1.6237,-1.6237,-1.6236,0,-1.6035,-1.6069,-1.6096,-1.6106,-1.6128,-1.6141,-1.6151,-1.6167,-1.6179,-1.6197,-1.6205,-1.6224,-1.6235,-1.625,-1.6256,-1.6246,-1.6287,-1.6275,-1.629,-1.629,-1.6298,-1.6297,-1.6342,-1.6307,-1.6306,-1.6306,-1.6306,0,-1.607,-1.6093,-1.6106,-1.6123,-1.6149,-1.6156,-1.6181,-1.619,-1.6205,-1.6222,-1.6224,-1.624,-1.6248,-1.6266,-1.6271,-1.6296,-1.6301,-1.6304,-1.6305,-1.6304,-1.6303,-1.6309,-1.6307,-1.6308,-1.6307,-1.6307,-1.6307,0,-1.6097,-1.6107,-1.6137,-1.6156,-1.6161,-1.618,-1.6196,-1.6211,-1.6219,-1.6242,-1.6248,-1.626,-1.6281,-1.6289,-1.6314,-1.6318,-1.6346,-1.6346,-1.6341,-1.634,-1.6355,-1.6354,-1.6405,-1.6411,-1.6373,-1.6373,-1.6373,0,-1.6118,-1.6136,-1.6158,-1.617,-1.618,-1.6201,-1.6214,-1.6221,-1.6235,-1.6255,-1.6268,-1.629,-1.6307,-1.634,-1.635,-1.637,-1.6369,-1.6386,-1.6372,-1.637,-1.6368,-1.6367,-1.6368,-1.6388,-1.6388,-1.6389,-1.6389,0,-1.6154,-1.6159,-1.6178,-1.6199,-1.6214,-1.6231,-1.6247,-1.6257,-1.6267,-1.6282,-1.6304,-1.6317,-1.6344,-1.6364,-1.6384,-1.6394,-1.6393,-1.6394,-1.6398,-1.6396,-1.6392,-1.6393,-1.6346,-1.6392,-1.6392,-1.6391,-1.6391,-1.6391,-1.6178,-1.6194,-1.6212,-1.6233,-1.6246,-1.6261,-1.6277,-1.6288,-1.6306,-1.6329,-1.6332,-1.6355,-1.6371,-1.6398,-1.6408,-1.6426,-1.6422,-1.6428,-1.643,-1.6431,-1.6432,-1.639,-1.643,-1.643,-1.643,-1.643,-1.643,0,-1.6214,-1.6225,-1.6245,-1.6268,-1.6284,-1.6283,-1.6301,-1.6315,-1.6335,-1.6351,-1.6368,-1.6393,-1.6413,-1.6426,-1.6446,-1.6458,-1.6458,-1.6462,-1.6461,-1.6463,-1.6435,-1.6429,-1.6462,-1.6462,-1.6462,-1.6462,-1.6462,-1.6462,-1.6234,-1.626,-1.6267,-1.63,-1.6311,-1.6334,-1.6344,-1.6358,-1.6371,-1.6398,-1.6416,-1.6424,-1.6438,-1.6459,-1.6478,-1.6481,-1.6487,-1.6493,-1.6495,-1.6468,-1.6465,-1.6462,-1.6456,-1.6494,-1.6494,-1.6521,-1.6522,-1.6522]}]]